Portada
METAR-TAF:

METAR-TAF

Aeroports :

Aeroport de Moulay Ali Cherif

Rachidia, Marroc

latitud: 31-56N, longitud: 004-24W, altitud: 1034 m

Observació

L'informe es va fer fa 29 minuts, a les 06:00 UTC
Vent 3 kt amb direcció variable
Temperatura 19°C
Humitat 68%
Pressió 1024 hPa
Visibilitat 10 km o més
sense núvols per sota de 1500 mi sense presència de cumulonimbus.

METAR: GMFK 260600Z VRB03KT CAVOK 19/13 Q1024 NOSIG

Hora: 07:29 (06:29 UTC)


TAF: manca

Observacions i pronòstics meteorològics de més de 4000 aeroports (METAR i TAF).

Les estacions disponibles són els punts grocs i vermells al mapa.

Posi el ratolí al punt desitjat per veure el nom de l'estació.

Feu clic per veure les observacions i els pronòstics meteorològics.

Per canviar el mapa: feu clic els botons verds amb una creu de color negre per apropar; al botó verd amb un guió per allunyar la imatge; o en les fletxes verdes per a mapes adjacents.


METAR-TAF: